Time,TemperatureF,DewpointF,PressureIn,WindDirection,WindDirectionDegrees,WindSpeedMPH,WindSpeedGustMPH,Humidity,HourlyPrecipIn,Conditions,Clouds,dailyrainin,SoftwareType,DateUTC
2013-06-11 00:04:00,70.8,68.7,29.98,West,261,3.0,4.0,93,0.00,,,0.00,Wunderground v.1.15,2013-06-11 04:04:00,
2013-06-11 00:10:00,70.6,68.5,29.98,WSW,241,4.0,4.0,93,0.00,,,0.00,Wunderground v.1.15,2013-06-11 04:10:00,
2013-06-11 00:20:00,70.4,68.3,29.98,SW,219,5.0,5.0,93,0.00,,,0.00,Wunderground v.1.15,2013-06-11 04:20:00,
2013-06-11 00:30:00,70.2,68.1,29.97,SSW,204,5.0,6.0,93,0.00,,,0.00,Wunderground v.1.15,2013-06-11 04:30:00,
2013-06-11 00:35:00,70.1,68.0,29.97,SSW,202,6.0,6.0,93,0.00,,,0.00,Wunderground v.1.15,2013-06-11 04:35:00,
2013-06-11 00:40:00,70.0,67.9,29.97,SSW,209,6.0,6.0,93,0.00,,,0.00,Wunderground v.1.15,2013-06-11 04:40:00,
2013-06-11 00:49:00,70.0,67.9,29.97,SSW,202,6.0,6.0,93,0.00,,,0.00,Wunderground v.1.15,2013-06-11 04:49:00,
2013-06-11 00:55:00,70.0,67.9,29.97,SSW,200,6.0,7.0,93,0.00,,,0.00,Wunderground v.1.15,2013-06-11 04:55:00,
2013-06-11 01:00:00,70.0,67.9,29.97,SW,223,6.0,6.0,93,0.00,,,0.00,Wunderground v.1.15,2013-06-11 05:00:00,
2013-06-11 01:09:00,70.0,68.2,29.97,SSW,207,7.0,7.0,94,0.00,,,0.00,Wunderground v.1.15,2013-06-11 05:09:00,
2013-06-11 01:15:00,70.0,68.2,29.97,SSW,211,6.0,7.0,94,0.00,,,0.00,Wunderground v.1.15,2013-06-11 05:15:00,
2013-06-11 01:25:00,70.0,68.2,29.97,SW,215,6.0,9.0,94,0.00,,,0.00,Wunderground v.1.15,2013-06-11 05:25:00,
2013-06-11 01:35:00,70.0,68.2,29.97,SSW,213,6.0,7.0,94,0.00,,,0.00,Wunderground v.1.15,2013-06-11 05:35:00,
2013-06-11 01:45:00,70.2,68.7,29.96,SSW,204,6.0,6.0,95,0.00,,,0.00,Wunderground v.1.15,2013-06-11 05:45:00,
2013-06-11 01:50:00,70.3,68.8,29.96,SW,215,8.0,8.0,95,0.00,,,0.00,Wunderground v.1.15,2013-06-11 05:50:00,
2013-06-11 01:55:00,70.3,68.8,29.96,SW,224,8.0,11.0,95,0.00,,,0.00,Wunderground v.1.15,2013-06-11 05:55:00,
2013-06-11 02:04:00,70.4,68.9,29.96,South,184,7.0,9.0,95,0.00,,,0.00,Wunderground v.1.15,2013-06-11 06:04:00,
2013-06-11 02:10:00,70.5,69.0,29.96,SW,222,7.0,7.0,95,0.00,,,0.00,Wunderground v.1.15,2013-06-11 06:10:00,
2013-06-11 02:20:00,70.6,69.1,29.96,SW,225,7.0,7.0,95,0.00,,,0.00,Wunderground v.1.15,2013-06-11 06:20:00,
2013-06-11 02:30:00,70.7,69.2,29.96,SSW,197,7.0,8.0,95,0.00,,,0.00,Wunderground v.1.15,2013-06-11 06:30:00,
2013-06-11 02:39:00,70.9,69.4,29.96,SW,225,7.0,10.0,95,0.00,,,0.00,Wunderground v.1.15,2013-06-11 06:39:00,
2013-06-11 02:45:00,70.9,69.4,29.96,SW,223,7.0,10.0,95,0.00,,,0.00,Wunderground v.1.15,2013-06-11 06:45:00,
2013-06-11 02:55:00,71.0,69.5,29.96,SW,226,6.0,7.0,95,0.00,,,0.00,Wunderground v.1.15,2013-06-11 06:55:00,
2013-06-11 03:05:00,71.1,69.6,29.96,SW,224,6.0,7.0,95,0.00,,,0.00,Wunderground v.1.15,2013-06-11 07:05:00,
2013-06-11 03:15:00,71.1,69.3,29.95,SSW,196,7.0,8.0,94,0.00,,,0.00,Wunderground v.1.15,2013-06-11 07:15:00,
2013-06-11 03:25:00,71.1,69.3,29.95,SSW,211,6.0,7.0,94,0.00,,,0.00,Wunderground v.1.15,2013-06-11 07:25:00,
2013-06-11 03:35:00,71.0,69.2,29.95,WSW,241,5.0,5.0,94,0.00,,,0.00,Wunderground v.1.15,2013-06-11 07:35:00,
2013-06-11 03:45:00,71.0,69.2,29.95,WSW,249,4.0,5.0,94,0.00,,,0.00,Wunderground v.1.15,2013-06-11 07:45:00,
2013-06-11 03:55:00,70.9,69.1,29.95,SW,236,3.0,3.0,94,0.00,,,0.00,Wunderground v.1.15,2013-06-11 07:55:00,
2013-06-11 04:05:00,70.7,68.9,29.95,WSW,244,2.0,4.0,94,0.00,,,0.00,Wunderground v.1.15,2013-06-11 08:05:00,
2013-06-11 04:15:00,70.6,68.8,29.96,WSW,252,2.0,5.0,94,0.00,,,0.00,Wunderground v.1.15,2013-06-11 08:15:00,
2013-06-11 04:25:00,70.6,68.8,29.96,SW,219,2.0,2.0,94,0.00,,,0.00,Wunderground v.1.15,2013-06-11 08:25:00,
2013-06-11 04:35:00,70.4,68.9,29.95,SW,222,2.0,4.0,95,0.00,,,0.00,Wunderground v.1.15,2013-06-11 08:35:00,
2013-06-11 04:45:00,70.4,68.9,29.95,SW,234,3.0,4.0,95,0.00,,,0.00,Wunderground v.1.15,2013-06-11 08:45:00,
2013-06-11 04:55:00,70.4,68.9,29.95,SW,215,4.0,4.0,95,0.00,,,0.00,Wunderground v.1.15,2013-06-11 08:55:00,
2013-06-11 05:05:00,70.3,68.8,29.96,WSW,252,3.0,4.0,95,0.00,,,0.00,Wunderground v.1.15,2013-06-11 09:05:00,
2013-06-11 05:14:00,70.3,68.8,29.96,SW,223,4.0,4.0,95,0.00,,,0.00,Wunderground v.1.15,2013-06-11 09:14:00,
2013-06-11 05:20:00,70.3,68.8,29.96,SW,226,4.0,4.0,95,0.00,,,0.00,Wunderground v.1.15,2013-06-11 09:20:00,
2013-06-11 05:30:00,70.4,68.9,29.96,SW,216,5.0,6.0,95,0.00,,,0.00,Wunderground v.1.15,2013-06-11 09:30:00,
2013-06-11 05:40:00,70.4,68.9,29.96,WSW,249,5.0,5.0,95,0.00,,,0.00,Wunderground v.1.15,2013-06-11 09:40:00,
2013-06-11 05:50:00,70.5,69.0,29.96,SW,217,4.0,8.0,95,0.00,,,0.00,Wunderground v.1.15,2013-06-11 09:50:00,
2013-06-11 06:00:00,70.6,69.1,29.97,SW,218,6.0,7.0,95,0.00,,,0.00,Wunderground v.1.15,2013-06-11 10:00:00,
2013-06-11 06:09:00,70.6,69.1,29.97,SW,229,6.0,6.0,95,0.00,,,0.00,Wunderground v.1.15,2013-06-11 10:09:00,
2013-06-11 06:15:00,70.6,69.1,29.96,SW,218,6.0,10.0,95,0.00,,,0.00,Wunderground v.1.15,2013-06-11 10:15:00,
2013-06-11 06:25:00,70.6,69.1,29.97,West,261,6.0,6.0,95,0.00,,,0.00,Wunderground v.1.15,2013-06-11 10:25:00,
2013-06-11 06:35:00,70.6,69.1,29.97,WSW,257,4.0,5.0,95,0.00,,,0.00,Wunderground v.1.15,2013-06-11 10:35:00,
2013-06-11 06:45:00,70.6,69.1,29.97,West,267,4.0,5.0,95,0.00,,,0.00,Wunderground v.1.15,2013-06-11 10:45:00,
2013-06-11 06:55:00,70.7,69.2,29.98,WNW,295,4.0,4.0,95,0.00,,,0.00,Wunderground v.1.15,2013-06-11 10:55:00,
2013-06-11 07:05:00,70.7,69.2,29.98,WNW,286,4.0,4.0,95,0.00,,,0.00,Wunderground v.1.15,2013-06-11 11:05:00,
2013-06-11 07:14:00,70.8,69.3,29.98,West,269,4.0,5.0,95,0.00,,,0.00,Wunderground v.1.15,2013-06-11 11:14:00,
2013-06-11 07:20:00,70.8,69.3,29.98,West,261,5.0,5.0,95,0.00,,,0.00,Wunderground v.1.15,2013-06-11 11:20:00,
2013-06-11 07:30:00,71.0,69.8,29.97,West,265,4.0,4.0,96,0.00,,,0.00,Wunderground v.1.15,2013-06-11 11:30:00,
2013-06-11 07:40:00,71.2,69.7,29.97,SW,235,4.0,4.0,95,0.00,,,0.00,Wunderground v.1.15,2013-06-11 11:40:00,
2013-06-11 07:50:00,71.6,70.1,29.97,SW,235,4.0,7.0,95,0.00,,,0.00,Wunderground v.1.15,2013-06-11 11:50:00,
2013-06-11 08:00:00,72.1,70.3,29.97,WSW,258,4.0,6.0,94,0.00,,,0.00,Wunderground v.1.15,2013-06-11 12:00:00,
2013-06-11 08:10:00,72.5,70.7,29.97,WSW,256,5.0,5.0,94,0.00,,,0.00,Wunderground v.1.15,2013-06-11 12:10:00,
2013-06-11 08:20:00,73.0,70.9,29.97,WSW,252,6.0,6.0,93,0.00,,,0.00,Wunderground v.1.15,2013-06-11 12:20:00,
2013-06-11 08:30:00,73.5,71.4,29.97,SW,221,5.0,5.0,93,0.00,,,0.00,Wunderground v.1.15,2013-06-11 12:30:00,
2013-06-11 08:39:00,73.6,71.1,29.97,West,274,5.0,5.0,92,0.00,,,0.00,Wunderground v.1.15,2013-06-11 12:39:00,
2013-06-11 08:45:00,73.6,71.1,29.98,WSW,255,6.0,6.0,92,0.00,,,0.00,Wunderground v.1.15,2013-06-11 12:45:00,
2013-06-11 08:55:00,73.7,70.6,29.98,WSW,253,7.0,12.0,90,0.00,,,0.00,Wunderground v.1.15,2013-06-11 12:55:00,
2013-06-11 09:05:00,73.8,70.7,29.98,WSW,250,7.0,8.0,90,0.00,,,0.00,Wunderground v.1.15,2013-06-11 13:05:00,
2013-06-11 09:15:00,74.0,70.9,29.98,WSW,246,5.0,13.0,90,0.00,,,0.00,Wunderground v.1.15,2013-06-11 13:15:00,
2013-06-11 09:25:00,74.4,70.9,29.98,WNW,288,5.0,9.0,89,0.00,,,0.00,Wunderground v.1.15,2013-06-11 13:25:00,
2013-06-11 09:34:00,74.2,70.7,29.99,WSW,256,7.0,7.0,89,0.00,,,0.00,Wunderground v.1.15,2013-06-11 13:34:00,
2013-06-11 09:40:00,74.2,70.7,29.99,West,281,6.0,6.0,89,0.00,,,0.00,Wunderground v.1.15,2013-06-11 13:40:00,
2013-06-11 09:50:00,75.1,71.6,29.98,West,259,4.0,4.0,89,0.00,,,0.00,Wunderground v.1.15,2013-06-11 13:50:00,
2013-06-11 10:00:00,75.9,71.4,29.98,WSW,244,5.0,8.0,86,0.00,,,0.00,Wunderground v.1.15,2013-06-11 14:00:00,
2013-06-11 10:09:00,76.3,71.5,29.97,West,260,7.0,7.0,85,0.00,,,0.00,Wunderground v.1.15,2013-06-11 14:09:00,
2013-06-11 10:15:00,76.3,71.5,29.97,SW,228,5.0,7.0,85,0.00,,,0.00,Wunderground v.1.15,2013-06-11 14:15:00,
2013-06-11 10:20:00,76.0,70.8,29.97,WSW,257,6.0,6.0,84,0.00,,,0.00,Wunderground v.1.15,2013-06-11 14:20:00,
2013-06-11 10:30:00,76.0,71.2,29.97,West,275,5.0,10.0,85,0.00,,,0.00,Wunderground v.1.15,2013-06-11 14:30:00,
2013-06-11 10:40:00,76.4,71.6,29.97,SW,221,6.0,8.0,85,0.00,,,0.00,Wunderground v.1.15,2013-06-11 14:40:00,
2013-06-11 10:45:00,76.6,71.7,29.97,SW,216,6.0,8.0,85,0.00,,,0.00,Wunderground v.1.15,2013-06-11 14:45:00,
2013-06-11 10:54:00,76.6,71.7,29.97,SW,215,6.0,7.0,85,0.00,,,0.00,Wunderground v.1.15,2013-06-11 14:54:00,
2013-06-11 11:00:00,76.6,71.4,29.97,SW,236,6.0,6.0,84,0.00,,,0.00,Wunderground v.1.15,2013-06-11 15:00:00,
2013-06-11 11:10:00,76.7,71.5,29.97,WSW,256,7.0,7.0,84,0.00,,,0.00,Wunderground v.1.15,2013-06-11 15:10:00,
2013-06-11 11:20:00,76.7,71.1,29.97,SW,218,7.0,7.0,83,0.00,,,0.00,Wunderground v.1.15,2013-06-11 15:20:00,
2013-06-11 11:30:00,77.2,71.6,29.98,West,264,5.0,5.0,83,0.00,,,0.00,Wunderground v.1.15,2013-06-11 15:30:00,
2013-06-11 11:39:00,77.7,72.1,29.98,West,279,5.0,5.0,83,0.00,,,0.00,Wunderground v.1.15,2013-06-11 15:39:00,
2013-06-11 11:45:00,77.7,72.1,29.98,WSW,257,6.0,6.0,83,0.00,,,0.00,Wunderground v.1.15,2013-06-11 15:45:00,
2013-06-11 11:55:00,77.9,72.3,29.97,WSW,246,4.0,6.0,83,0.00,,,0.00,Wunderground v.1.15,2013-06-11 15:55:00,
2013-06-11 12:05:00,78.1,72.2,29.97,WSW,247,5.0,5.0,82,0.00,,,0.00,Wunderground v.1.15,2013-06-11 16:05:00,
2013-06-11 12:15:00,77.8,72.6,29.97,West,268,6.0,6.0,84,0.00,,,0.00,Wunderground v.1.15,2013-06-11 16:15:00,
2013-06-11 12:25:00,78.5,72.5,29.96,SW,231,6.0,9.0,82,0.00,,,0.00,Wunderground v.1.15,2013-06-11 16:25:00,
2013-06-11 12:35:00,79.2,72.9,29.96,WSW,243,7.0,7.0,81,0.00,,,0.00,Wunderground v.1.15,2013-06-11 16:35:00,
2013-06-11 12:45:00,79.4,72.7,29.95,SW,226,8.0,8.0,80,0.00,,,0.00,Wunderground v.1.15,2013-06-11 16:45:00,
2013-06-11 12:55:00,80.4,73.3,29.96,SW,232,8.0,10.0,79,0.00,,,0.00,Wunderground v.1.15,2013-06-11 16:55:00,
2013-06-11 13:05:00,81.0,73.1,29.95,WSW,244,8.0,11.0,77,0.00,,,0.00,Wunderground v.1.15,2013-06-11 17:05:00,
2013-06-11 13:15:00,80.7,72.8,29.95,WSW,238,6.0,8.0,77,0.00,,,0.00,Wunderground v.1.15,2013-06-11 17:15:00,
2013-06-11 13:24:00,81.0,73.5,29.94,West,262,5.0,6.0,78,0.00,,,0.00,Wunderground v.1.15,2013-06-11 17:24:00,
2013-06-11 13:30:00,81.6,73.7,29.94,WSW,250,5.0,5.0,77,0.00,,,0.00,Wunderground v.1.15,2013-06-11 17:30:00,
2013-06-11 13:40:00,82.0,73.7,29.94,WSW,246,6.0,6.0,76,0.00,,,0.00,Wunderground v.1.15,2013-06-11 17:40:00,
2013-06-11 13:50:00,82.8,73.7,29.93,West,275,6.0,6.0,74,0.00,,,0.00,Wunderground v.1.15,2013-06-11 17:50:00,
2013-06-11 14:00:00,82.7,72.7,29.93,WSW,246,7.0,10.0,72,0.00,,,0.00,Wunderground v.1.15,2013-06-11 18:00:00,
2013-06-11 14:10:00,83.0,73.0,29.93,West,275,7.0,7.0,72,0.00,,,0.00,Wunderground v.1.15,2013-06-11 18:10:00,
2013-06-11 14:20:00,83.5,73.1,29.93,West,267,7.0,10.0,71,0.00,,,0.00,Wunderground v.1.15,2013-06-11 18:20:00,
2013-06-11 14:30:00,83.3,73.3,29.93,West,265,6.0,9.0,72,0.00,,,0.00,Wunderground v.1.15,2013-06-11 18:30:00,
2013-06-11 14:40:00,84.0,73.2,29.93,West,266,8.0,9.0,70,0.00,,,0.00,Wunderground v.1.15,2013-06-11 18:40:00,
2013-06-11 14:50:00,83.6,72.8,29.92,WNW,290,8.0,9.0,70,0.00,,,0.00,Wunderground v.1.15,2013-06-11 18:50:00,
2013-06-11 15:00:00,84.1,73.7,29.92,West,277,7.0,7.0,71,0.00,,,0.00,Wunderground v.1.15,2013-06-11 19:00:00,
2013-06-11 15:10:00,84.5,73.2,29.91,WSW,248,7.0,10.0,69,0.00,,,0.00,Wunderground v.1.15,2013-06-11 19:10:00,
2013-06-11 15:19:00,84.4,73.1,29.91,WSW,241,8.0,9.0,69,0.00,,,0.00,Wunderground v.1.15,2013-06-11 19:19:00,
2013-06-11 15:25:00,84.2,73.3,29.90,WSW,252,8.0,9.0,70,0.00,,,0.00,Wunderground v.1.15,2013-06-11 19:25:00,
2013-06-11 15:35:00,85.4,73.6,29.90,SW,229,6.0,8.0,68,0.00,,,0.00,Wunderground v.1.15,2013-06-11 19:35:00,
2013-06-11 15:45:00,85.5,73.7,29.90,West,267,6.0,8.0,68,0.00,,,0.00,Wunderground v.1.15,2013-06-11 19:45:00,
2013-06-11 15:55:00,85.4,73.2,29.90,WSW,242,7.0,8.0,67,0.00,,,0.00,Wunderground v.1.15,2013-06-11 19:55:00,
2013-06-11 16:05:00,85.8,73.1,29.89,WSW,254,5.0,10.0,66,0.00,,,0.00,Wunderground v.1.15,2013-06-11 20:05:00,
2013-06-11 16:14:00,86.0,73.3,29.89,South,187,7.0,9.0,66,0.00,,,0.00,Wunderground v.1.15,2013-06-11 20:14:00,
2013-06-11 16:20:00,86.3,73.6,29.89,NW,305,7.0,7.0,66,0.00,,,0.00,Wunderground v.1.15,2013-06-11 20:20:00,
2013-06-11 16:30:00,86.2,73.0,29.89,WSW,240,7.0,7.0,65,0.00,,,0.00,Wunderground v.1.15,2013-06-11 20:30:00,
2013-06-11 16:40:00,86.7,74.0,29.89,West,265,7.0,7.0,66,0.00,,,0.00,Wunderground v.1.15,2013-06-11 20:40:00,
2013-06-11 16:50:00,86.9,72.8,29.89,West,262,6.0,9.0,63,0.00,,,0.00,Wunderground v.1.15,2013-06-11 20:50:00,
2013-06-11 17:00:00,86.6,73.0,29.89,West,266,7.0,9.0,64,0.00,,,0.00,Wunderground v.1.15,2013-06-11 21:00:00,
2013-06-11 17:10:00,86.7,73.1,29.88,West,277,6.0,12.0,64,0.00,,,0.00,Wunderground v.1.15,2013-06-11 21:10:00,
2013-06-11 17:20:00,86.8,73.6,29.88,West,276,6.0,6.0,65,0.00,,,0.00,Wunderground v.1.15,2013-06-11 21:20:00,
2013-06-11 17:30:00,87.1,73.4,29.88,West,273,6.0,6.0,64,0.00,,,0.00,Wunderground v.1.15,2013-06-11 21:30:00,
2013-06-11 17:40:00,86.9,73.3,29.88,WSW,244,6.0,6.0,64,0.00,,,0.00,Wunderground v.1.15,2013-06-11 21:40:00,
2013-06-11 17:50:00,86.7,73.5,29.88,SW,232,6.0,6.0,65,0.00,,,0.00,Wunderground v.1.15,2013-06-11 21:50:00,
2013-06-11 18:00:00,86.1,73.9,29.88,West,274,5.0,5.0,67,0.00,,,0.00,Wunderground v.1.15,2013-06-11 22:00:00,
2013-06-11 18:10:00,86.7,73.5,29.88,West,279,4.0,4.0,65,0.00,,,0.00,Wunderground v.1.15,2013-06-11 22:10:00,
2013-06-11 18:20:00,86.2,73.5,29.88,WSW,240,5.0,6.0,66,0.00,,,0.00,Wunderground v.1.15,2013-06-11 22:20:00,
2013-06-11 18:30:00,86.5,74.2,29.88,WSW,239,4.0,4.0,67,0.00,,,0.00,Wunderground v.1.15,2013-06-11 22:30:00,
2013-06-11 18:40:00,86.3,74.0,29.88,WSW,249,4.0,4.0,67,0.00,,,0.00,Wunderground v.1.15,2013-06-11 22:40:00,
2013-06-11 18:50:00,85.9,74.5,29.87,West,262,5.0,6.0,69,0.00,,,0.00,Wunderground v.1.15,2013-06-11 22:50:00,
2013-06-11 19:00:00,85.8,74.4,29.88,West,278,4.0,4.0,69,0.00,,,0.00,Wunderground v.1.15,2013-06-11 23:00:00,
2013-06-11 19:10:00,85.6,74.3,29.88,WSW,246,5.0,5.0,69,0.00,,,0.00,Wunderground v.1.15,2013-06-11 23:10:00,
2013-06-11 19:20:00,84.4,74.4,29.88,SW,232,6.0,10.0,72,0.00,,,0.00,Wunderground v.1.15,2013-06-11 23:20:00,
2013-06-11 19:29:00,83.2,73.2,29.88,WSW,257,6.0,6.0,72,0.00,,,0.00,Wunderground v.1.15,2013-06-11 23:29:00,
2013-06-11 19:35:00,82.8,72.4,29.89,WSW,244,6.0,6.0,71,0.00,,,0.00,Wunderground v.1.15,2013-06-11 23:35:00,
2013-06-11 19:40:00,82.6,72.7,29.89,SW,232,5.0,6.0,72,0.00,,,0.00,Wunderground v.1.15,2013-06-11 23:40:00,
2013-06-11 19:49:00,81.9,72.4,29.89,SW,227,5.0,5.0,73,0.00,,,0.00,Wunderground v.1.15,2013-06-11 23:49:00,
2013-06-11 19:55:00,81.5,72.4,29.89,WSW,248,6.0,6.0,74,0.00,,,0.00,Wunderground v.1.15,2013-06-11 23:55:00,
2013-06-11 20:05:00,80.6,72.3,29.90,West,273,6.0,8.0,76,0.00,,,0.00,Wunderground v.1.15,2013-06-12 00:05:00,
2013-06-11 20:15:00,79.9,72.0,29.90,SSW,213,6.0,7.0,77,0.00,,,0.01,Wunderground v.1.15,2013-06-12 00:15:00,
2013-06-11 20:24:00,79.4,71.9,29.90,WSW,242,7.0,7.0,78,0.00,,,0.01,Wunderground v.1.15,2013-06-12 00:24:00,
2013-06-11 20:30:00,79.2,72.1,29.90,SW,235,5.0,5.0,79,0.00,,,0.01,Wunderground v.1.15,2013-06-12 00:30:00,
2013-06-11 20:40:00,79.0,71.9,29.90,WSW,245,4.0,4.0,79,0.00,,,0.01,Wunderground v.1.15,2013-06-12 00:40:00,
2013-06-11 20:45:00,78.7,72.0,29.90,WSW,238,3.0,4.0,80,0.00,,,0.01,Wunderground v.1.15,2013-06-12 00:45:00,
2013-06-11 20:54:00,78.4,72.1,29.91,WSW,242,3.0,3.0,81,0.00,,,0.01,Wunderground v.1.15,2013-06-12 00:54:00,
2013-06-11 21:00:00,78.2,72.3,29.91,SW,227,3.0,4.0,82,0.00,,,0.01,Wunderground v.1.15,2013-06-12 01:00:00,
2013-06-11 21:10:00,78.1,72.5,29.91,WSW,244,2.0,2.0,83,0.00,,,0.01,Wunderground v.1.15,2013-06-12 01:10:00,
2013-06-11 21:20:00,77.9,72.3,29.91,WSW,246,1.0,1.0,83,0.00,,,0.01,Wunderground v.1.15,2013-06-12 01:20:00,
2013-06-11 21:30:00,77.8,72.2,29.92,WSW,246,0.0,0.0,83,0.00,,,0.01,Wunderground v.1.15,2013-06-12 01:30:00,
2013-06-11 21:40:00,78.0,72.4,29.92,WSW,246,0.0,0.0,83,0.00,,,0.01,Wunderground v.1.15,2013-06-12 01:40:00,
2013-06-11 21:50:00,77.9,72.7,29.92,WSW,246,0.0,0.0,84,0.00,,,0.01,Wunderground v.1.15,2013-06-12 01:50:00,
2013-06-11 21:55:00,77.7,72.5,29.92,WSW,246,0.0,0.0,84,0.00,,,0.01,Wunderground v.1.15,2013-06-12 01:55:00,
2013-06-11 22:05:00,77.5,72.6,29.92,WSW,246,0.0,0.0,85,0.00,,,0.01,Wunderground v.1.15,2013-06-12 02:05:00,
2013-06-11 22:15:00,77.3,72.8,29.93,WSW,246,0.0,0.0,86,0.00,,,0.01,Wunderground v.1.15,2013-06-12 02:15:00,
2013-06-11 22:25:00,77.0,72.5,29.93,WSW,244,1.0,2.0,86,0.00,,,0.01,Wunderground v.1.15,2013-06-12 02:25:00,
2013-06-11 22:30:00,77.0,72.8,29.94,WSW,244,2.0,2.0,87,0.00,,,0.01,Wunderground v.1.15,2013-06-12 02:30:00,
2013-06-11 22:39:00,77.0,72.5,29.94,WSW,244,2.0,2.0,86,0.00,,,0.01,Wunderground v.1.15,2013-06-12 02:39:00,
2013-06-11 22:45:00,77.0,72.5,29.94,WSW,244,2.0,2.0,86,0.00,,,0.01,Wunderground v.1.15,2013-06-12 02:45:00,
2013-06-11 22:55:00,76.9,72.7,29.94,WSW,242,3.0,3.0,87,0.00,,,0.01,Wunderground v.1.15,2013-06-12 02:55:00,
2013-06-11 23:05:00,76.6,72.8,29.94,SW,236,2.0,3.0,88,0.00,,,0.01,Wunderground v.1.15,2013-06-12 03:05:00,
2013-06-11 23:15:00,76.4,72.6,29.94,SW,236,1.0,2.0,88,0.00,,,0.01,Wunderground v.1.15,2013-06-12 03:15:00,
2013-06-11 23:25:00,76.2,72.7,29.94,SW,229,2.0,2.0,89,0.00,,,0.01,Wunderground v.1.15,2013-06-12 03:25:00,
2013-06-11 23:35:00,76.1,72.6,29.94,SW,229,0.0,1.0,89,0.00,,,0.01,Wunderground v.1.15,2013-06-12 03:35:00,
2013-06-11 23:45:00,75.9,72.8,29.95,SW,229,1.0,1.0,90,0.00,,,0.01,Wunderground v.1.15,2013-06-12 03:45:00,
2013-06-11 23:55:00,75.7,72.6,29.95,SW,229,0.0,1.0,90,0.00,,,0.01,Wunderground v.1.15,2013-06-12 03:55:00,